When you browse on this site, cookies collect data to enhance your experience and personalize the content and advertising you see.
Visit our Privacy Policy to learn more. By continuing to use the site, you agree to this use of cookies and data.
  • In Latvia
  • List of Countries
  • For 7 days
  • Water Temperature
  • Weather Map
  • Weather Widgets
  • user-avatar
    Login

    Hourly Weather Solden

    Today, 22 September, Sunday

    Time Temperature Precipitation Wind Pressure Humidity
    00:00 +3°C° 0 mm 1 mps 584 mmHg 92%
    01:00 +3°C° 0 mm 1 mps 584 mmHg 93%
    02:00 +3°C° 0 mm 1 mps 583 mmHg 92%
    03:00 +3°C° 0 mm 1 mps 583 mmHg 91%
    04:00 +3°C° 0 mm 1 mps 583 mmHg 89%
    05:00 +4°C° 0 mm 1 mps 583 mmHg 88%
    06:00 +4°C° 0 mm 1 mps 583 mmHg 87%
    07:00 +5°C° 0 mm 1 mps 583 mmHg 86%
    08:00 +6°C° 0 mm 1 mps 584 mmHg 82%
    09:00 +7°C° 0 mm 1 mps 584 mmHg 78%
    10:00 +8°C° 0 mm 1 mps 585 mmHg 74%
    11:00 +9°C° 0 mm 1 mps 585 mmHg 72%
    12:00 +8°C° 0 mm 2 mps 585 mmHg 70%
    13:00 +9°C° 0 mm 2 mps 585 mmHg 68%
    14:00 +9°C° 0 mm 2 mps 585 mmHg 70%
    15:00 +10°C° 0 mm 1 mps 584 mmHg 72%
    16:00 +10°C° 0 mm 1 mps 584 mmHg 74%
    17:00 +8°C° 0 mm 1 mps 584 mmHg 81%
    18:00 +7°C° 0 mm 1 mps 583 mmHg 87%
    19:00 +5°C° 0 mm 0 mps 583 mmHg 94%
    20:00 +5°C° 0 mm 0 mps 582 mmHg 94%
    21:00 +4°C° 0 mm 0 mps 582 mmHg 94%
    22:00 +4°C° 0 mm 0 mps 582 mmHg 94%
    23:00 +4°C° 0 mm 0 mps 582 mmHg 94%

    Tomorrow, 23 September, Monday

    Time Temperature Precipitation Wind Pressure Humidity
    00:00 +4°C° 0 mm 0 mps 582 mmHg 93%
    01:00 +4°C° 0 mm 0 mps 582 mmHg 93%
    02:00 +4°C° 0 mm 0 mps 581 mmHg 94%
    03:00 +3°C° 0 mm 0 mps 581 mmHg 94%
    04:00 +3°C° 0 mm 0 mps 581 mmHg 94%
    05:00 +3°C° 0 mm 0 mps 581 mmHg 93%
    06:00 +4°C° 0 mm 0 mps 581 mmHg 92%
    07:00 +4°C° 0 mm 0 mps 582 mmHg 91%
    08:00 +6°C° 0.4 mm 1 mps 582 mmHg 90%
    09:00 +6°C° 0.4 mm 1 mps 582 mmHg 89%
    10:00 +7°C° 0.4 mm 1 mps 583 mmHg 87%
    11:00 +4°C° 4 mm 2 mps 582 mmHg 91%
    12:00 +3°C° 4 mm 2 mps 582 mmHg 94%
    13:00 +1°C° 4 mm 3 mps 581 mmHg 97%
    14:00 +1°C° 3 mm 3 mps 581 mmHg 97%
    15:00 +2°C° 3 mm 2 mps 581 mmHg 96%
    16:00 +1°C° 3 mm 2 mps 581 mmHg 96%
    17:00 +1°C° 0.2 mm 2 mps 581 mmHg 96%
    18:00 0°C° 0.2 mm 3 mps 581 mmHg 95%
    19:00 -1°C° 0.2 mm 3 mps 581 mmHg 94%
    20:00 -1°C° 0 mm 3 mps 581 mmHg 94%
    21:00 -1°C° 0 mm 3 mps 581 mmHg 93%
    22:00 -2°C° 0 mm 2 mps 581 mmHg 92%
    23:00 -2°C° 0 mm 2 mps 581 mmHg 90%

    Day after tomorrow, 24 September, Tuesday

    Time Temperature Precipitation Wind Pressure Humidity
    00:00 -2°C° 0 mm 2 mps 580 mmHg 88%
    01:00 -3°C° 0 mm 2 mps 580 mmHg 86%
    02:00 -3°C° 0 mm 2 mps 580 mmHg 84%
    03:00 -3°C° 0 mm 2 mps 580 mmHg 83%
    04:00 -1°C° 0 mm 1 mps 580 mmHg 82%
    05:00 0°C° 0 mm 1 mps 580 mmHg 80%
    06:00 0°C° 0 mm 1 mps 580 mmHg 79%
    07:00 +1°C° 0 mm 1 mps 580 mmHg 77%
    08:00 +3°C° 0 mm 1 mps 581 mmHg 74%
    09:00 +5°C° 0 mm 1 mps 582 mmHg 71%
    10:00 +7°C° 0 mm 1 mps 583 mmHg 68%
    11:00 +8°C° 0 mm 1 mps 583 mmHg 66%
    12:00 +8°C° 0 mm 1 mps 583 mmHg 64%
    13:00 +8°C° 0 mm 2 mps 583 mmHg 61%
    14:00 +8°C° 0 mm 2 mps 582 mmHg 64%
    15:00 +8°C° 0 mm 2 mps 582 mmHg 66%
    16:00 +9°C° 0 mm 1 mps 581 mmHg 69%
    17:00 +7°C° 0 mm 1 mps 581 mmHg 76%
    18:00 +5°C° 0 mm 1 mps 580 mmHg 84%
    19:00 +3°C° 0 mm 1 mps 579 mmHg 91%
    20:00 +3°C° 0 mm 1 mps 579 mmHg 90%
    21:00 +3°C° 0 mm 1 mps 579 mmHg 89%
    22:00 +3°C° 0 mm 1 mps 580 mmHg 88%
    23:00 +3°C° 0 mm 1 mps 579 mmHg 89%

    25 September, Wednesday

    Time Temperature Precipitation Wind Pressure Humidity
    00:00 +2°C° 0 mm 1 mps 579 mmHg 89%
    01:00 +2°C° 0 mm 1 mps 578 mmHg 89%
    02:00 +2°C° 0 mm 1 mps 578 mmHg 89%
    03:00 +2°C° 0 mm 1 mps 578 mmHg 88%
    04:00 +2°C° 0 mm 1 mps 578 mmHg 88%
    05:00 +2°C° 0 mm 1 mps 578 mmHg 87%
    06:00 +2°C° 0 mm 1 mps 578 mmHg 86%
    07:00 +2°C° 0 mm 0 mps 578 mmHg 85%
    08:00 +3°C° 0.2 mm 0 mps 579 mmHg 83%
    09:00 +4°C° 0.2 mm 0 mps 580 mmHg 81%
    10:00 +5°C° 0.2 mm 0 mps 580 mmHg 79%
    11:00 +6°C° 0.7 mm 1 mps 580 mmHg 81%
    12:00 +6°C° 0.7 mm 1 mps 580 mmHg 84%
    13:00 +6°C° 0.7 mm 1 mps 580 mmHg 86%
    14:00 +5°C° 0.3 mm 1 mps 580 mmHg 86%
    15:00 +4°C° 0.3 mm 2 mps 580 mmHg 86%
    16:00 +4°C° 0.3 mm 2 mps 580 mmHg 86%
    17:00 +3°C° 0.1 mm 2 mps 579 mmHg 88%
    18:00 +2°C° 0.1 mm 2 mps 579 mmHg 89%
    19:00 +2°C° 0.1 mm 2 mps 579 mmHg 91%
    20:00 +1°C° 0 mm 2 mps 579 mmHg 91%
    21:00 +1°C° 0 mm 2 mps 579 mmHg 91%
    22:00 -1°C° 0 mm 2 mps 580 mmHg 91%
    23:00 -1°C° 0 mm 2 mps 579 mmHg 90%

    26 September, Thursday

    Time Temperature Precipitation Wind Pressure Humidity
    00:00 -2°C° 0 mm 2 mps 579 mmHg 89%
    01:00 -2°C° 0 mm 2 mps 579 mmHg 89%
    02:00 -2°C° 0 mm 2 mps 579 mmHg 87%
    03:00 -2°C° 0 mm 2 mps 579 mmHg 86%
    04:00 -1°C° 0 mm 1 mps 579 mmHg 85%
    05:00 0°C° 0 mm 1 mps 580 mmHg 83%
    06:00 0°C° 0 mm 1 mps 580 mmHg 81%
    07:00 +1°C° 0 mm 1 mps 581 mmHg 79%
    08:00 +3°C° 0 mm 1 mps 582 mmHg 73%
    09:00 +5°C° 0 mm 1 mps 583 mmHg 67%
    10:00 +6°C° 0 mm 0 mps 584 mmHg 61%
    11:00 +8°C° 0 mm 1 mps 585 mmHg 58%
    12:00 +9°C° 0 mm 1 mps 585 mmHg 56%
    13:00 +10°C° 0 mm 1 mps 585 mmHg 54%
    14:00 +10°C° 0 mm 1 mps 585 mmHg 56%
    15:00 +10°C° 0 mm 1 mps 585 mmHg 58%
    16:00 +9°C° 0 mm 1 mps 584 mmHg 60%
    17:00 +7°C° 0 mm 1 mps 583 mmHg 69%
    18:00 +5°C° 0 mm 1 mps 583 mmHg 77%
    19:00 +3°C° 0 mm 1 mps 582 mmHg 85%
    20:00 +3°C° 0 mm 1 mps 582 mmHg 86%
    21:00 +3°C° 0 mm 1 mps 582 mmHg 87%
    22:00 +2°C° 0 mm 1 mps 582 mmHg 88%
    23:00 +1°C° 0 mm 0 mps 582 mmHg 89%

    27 September, Friday

    Time Temperature Precipitation Wind Pressure Humidity
    00:00 +1°C° 0 mm 0 mps 582 mmHg 89%
    01:00 +1°C° 0 mm 0 mps 582 mmHg 90%
    02:00 +1°C° 0 mm 0 mps 582 mmHg 91%
    03:00 +1°C° 0 mm 0 mps 581 mmHg 91%
    04:00 0°C° 0 mm 0 mps 581 mmHg 92%
    05:00 +1°C° 0 mm 0 mps 581 mmHg 91%
    06:00 +1°C° 0 mm 0 mps 582 mmHg 90%
    07:00 +2°C° 0 mm 0 mps 582 mmHg 89%
    08:00 +4°C° 0 mm 0 mps 583 mmHg 82%
    09:00 +7°C° 0 mm 1 mps 584 mmHg 76%
    10:00 +9°C° 0 mm 1 mps 585 mmHg 70%
    11:00 +9°C° 0 mm 1 mps 585 mmHg 69%
    12:00 +10°C° 0 mm 1 mps 585 mmHg 68%
    13:00 +9°C° 0 mm 2 mps 585 mmHg 68%
    14:00 +9°C° 0.1 mm 2 mps 585 mmHg 70%
    15:00 +8°C° 0.1 mm 2 mps 584 mmHg 73%
    16:00 +8°C° 0.1 mm 2 mps 584 mmHg 76%
    17:00 +8°C° 0.1 mm 1 mps 583 mmHg 82%
    18:00 +6°C° 0.1 mm 1 mps 583 mmHg 88%
    19:00 +5°C° 0.1 mm 1 mps 583 mmHg 94%
    20:00 +5°C° 0 mm 1 mps 583 mmHg 95%
    21:00 +4°C° 0 mm 1 mps 583 mmHg 96%
    22:00 +3°C° 0 mm 0 mps 583 mmHg 96%
    23:00 +3°C° 0 mm 0 mps 583 mmHg 96%
    Show more